Hourly Data Report for September 12, 2019

All times are specified in Local Standard Time (LST). Add 1 hour to adjust for Daylight Saving Time where and when it is observed.

EUREKA CLIMATE
NUNAVUT
Current Station Operator: ECCC - MSC

79°59'21.000" N
85°56'02.000" W
10.00 m
2401199
71613
NEK

Download Data

Hourly Data (September 2019)
Hourly Data Report for September 12, 2019
TIME Temp Definition
°C
Dew Point Definition
°C
Rel Hum Definition
%
Wind Dir Definition
10's deg

Wind Spd Definition
km/h
Visibility Definition
km
Stn Press Definition
kPa
Hmdx Definition


Wind Chill Definition


Weather Definition


00:00 -2.7 -4.2 90 29 20   101.44   -9 LegendNANA
01:00 -2.8 -4.2 90 31 10   101.47   -7 LegendNANA
02:00 -2.7 -4.0 91 30 16   101.46   -8 LegendNANA
03:00 -2.9 -3.9 93 28 19   101.48   -9 LegendNANA
04:00 -3.7 -4.7 93 1 10   101.49   -8 LegendNANA
05:00 -4.0 -4.7 95 35 12   101.50   -9 LegendNANA
06:00 -3.8 -5.3 90 35 6   101.52   -6 LegendNANA
07:00 -3.3 -4.7 90 33 4   101.52   -5 LegendNANA
08:00 -2.9 -4.4 89 30 16   101.52   -8 LegendNANA
09:00 -2.3 -4.5 85 31 9   101.52   -6 LegendNANA
10:00 -2.4 -4.1 88 27 17   101.50   -8 LegendNANA
11:00 -1.6 -4.7 79 27 8   101.47   -5 LegendNANA
12:00 -1.1 -4.4 78 32 8   101.47   -4 LegendNANA
13:00 -0.6 -4.5 75 28 8   101.48   -3 LegendNANA
14:00 -1.2 -3.9 82 27 17   101.47   -6 LegendNANA
15:00 -1.3 -4.0 82 27 21   101.48   -7 LegendNANA
16:00 -0.8 -3.8 80 27 15   101.48   -5 LegendNANA
17:00 -0.9 -3.7 81 27 14   101.50   -5 LegendNANA
18:00 -1.6 -4.5 80 32 7   101.51   -4 LegendNANA
19:00 -1.4 -3.4 86 28 16   101.49   -6 LegendNANA
20:00 -2.6 -5.2 83 1 6   101.49   -5 LegendNANA
21:00 -3.0 -5.2 85 35 10   101.49   -7 LegendNANA
22:00 -3.4 -5.2 88 1 14   101.50   -8 LegendNANA
23:00 -3.9 -5.5 89 2 12   101.51   -9 LegendNANA

Notes on Data Quality.

Legend

  • E = Estimated
  • M = Missing
  • NA = Not Available
Date modified: